| time (UTC) | temp F | wind direction | speed knots | gust knots | rain 1hr in | rain 24hr in | rain mn in | humidity % | barometer mb |
| 20260506062056 | 0 | 184 | 1.7 | 2.6 | 0.00 | 0.00 | 0.00 | 1010.8 | |
| 20260506061552 | 0 | 194 | 0.9 | 2.6 | 0.00 | 0.00 | 0.00 | 1010.8 | |
| 20260506061050 | 0 | 284 | 0.0 | 2.6 | 0.00 | 0.00 | 0.00 | 1010.8 | |
| 20260506060548 | 0 | 204 | 0.9 | 5.2 | 0.00 | 0.00 | 0.00 | 1010.8 | |
| 20260506051017 | 0 | 223 | 0.9 | 4.3 | 0.00 | 0.00 | 0.00 | 1011.0 | |
| 20260506050515 | 0 | 203 | 1.7 | 4.3 | 0.00 | 0.00 | 0.00 | 1011.0 | |
| 20260506045006 | 0 | 123 | 1.7 | 2.6 | 0.00 | 0.00 | 0.00 | 1010.7 | |
| 20260506044503 | 0 | 54 | 1.7 | 2.6 | 0.00 | 0.00 | 0.00 | 1010.7 | |
| 20260506044000 | 0 | 147 | 4.3 | 5.2 | 0.00 | 0.00 | 0.00 | 1010.8 | |
| 20260506043457 | 0 | 206 | 0.0 | 2.6 | 0.00 | 0.00 | 0.00 | 1010.8 | |
| 20260506042954 | 0 | 184 | 1.7 | 4.3 | 0.00 | 0.00 | 0.00 | 1010.8 | |
| 20260506042449 | 0 | 186 | 0.9 | 2.6 | 0.00 | 0.00 | 0.00 | ||
| 20260506041946 | 0 | 131 | 2.6 | 5.2 | 0.00 | 0.00 | 0.00 | 1010.3 | |
| 20260506041444 | 0 | 34 | 0.0 | 3.5 | 0.00 | 0.00 | 0.00 | 1010.3 | |
| 20260506040941 | 0 | 209 | 1.7 | 2.6 | 0.00 | 0.00 | 0.00 | 1010.3 | |
| 20260506040438 | 0 | 209 | 1.7 | 1.7 | 0.00 | 0.00 | 0.00 | 1010.3 | |
| 20260506035934 | 0 | 181 | 1.7 | 6.1 | 0.00 | 0.00 | 0.00 | 1010.3 | |
| 20260506035432 | 0 | 146 | 1.7 | 2.6 | 0.00 | 0.00 | 0.00 | 1010.3 | |
| 20260506034928 | 0 | 136 | 2.6 | 5.2 | 0.00 | 0.00 | 0.00 | 1010.3 | |
| 20260506034426 | 0 | 187 | 1.7 | 6.1 | 0.00 | 0.00 | 0.00 | 1010.3 | |
| 20260506033923 | 0 | 206 | 0.9 | 6.1 | 0.00 | 0.00 | 0.00 | 1010.3 | |
| 20260506033420 | 0 | 154 | 1.7 | 4.3 | 0.00 | 0.00 | 0.00 | 1010.3 | |
| 20260506032917 | 0 | 287 | 0.0 | 6.1 | 0.00 | 0.00 | 0.00 | 1010.3 | |
| 20260506032414 | 0 | 176 | 1.7 | 4.3 | 0.00 | 0.00 | 0.00 | 1010.3 | |
| 20260506031910 | 0 | 189 | 1.7 | 3.5 | 0.00 | 0.00 | 0.00 | 1010.0 | |
| 20260506031408 | 0 | 136 | 1.7 | 4.3 | 0.00 | 0.00 | 0.00 | 1010.0 | |
| 20260506030905 | 0 | 174 | 0.9 | 6.1 | 0.00 | 0.00 | 0.00 | 1010.0 | |
| 20260506030403 | 0 | 145 | 1.7 | 4.3 | 0.00 | 0.00 | 0.00 | ||
| 20260506025859 | 0 | 172 | 0.0 | 2.6 | 0.00 | 0.00 | 0.00 | ||
| 20260506025356 | 0 | 149 | 0.9 | 2.6 | 0.00 | 0.00 | 0.00 | ||
| 20260506024853 | 0 | 213 | 0.9 | 3.5 | 0.00 | 0.00 | 0.00 | ||
| 20260506024350 | 0 | 189 | 0.9 | 2.6 | 0.00 | 0.00 | 0.00 | ||
| 20260506023846 | 0 | 165 | 0.9 | 1.7 | 0.00 | 0.00 | 0.00 | ||
| 20260506023344 | 0 | 160 | 0.9 | 3.5 | 0.00 | 0.00 | 0.00 | ||
| 20260506022840 | 0 | 151 | 2.6 | 3.5 | 0.00 | 0.00 | 0.00 | ||
| 20260506022338 | 0 | 242 | 0.0 | 2.6 | 0.00 | 0.00 | 0.00 | ||
| 20260506021836 | 0 | 209 | 0.9 | 2.6 | 0.00 | 0.00 | 0.00 | ||
| 20260506021332 | 0 | 192 | 0.9 | 2.6 | 0.00 | 0.00 | 0.00 | ||
| 20260506020829 | 0 | 190 | 0.9 | 2.6 | 0.00 | 0.00 | 0.00 | ||
| 20260506020327 | 0 | 142 | 0.0 | 1.7 | 0.00 | 0.00 | 0.00 | ||
| 20260506015824 | 0 | 195 | 0.0 | 2.6 | 0.00 | 0.00 | 0.00 | ||
| 20260506015322 | 0 | 309 | 0.0 | 1.7 | 0.00 | 0.00 | 0.00 | ||
| 20260506014818 | 0 | 168 | 1.7 | 4.3 | 0.00 | 0.00 | 0.00 | 1008.6 | |
| 20260506014315 | 0 | 175 | 1.7 | 4.3 | 0.00 | 0.00 | 0.00 | 1008.6 | |
| 20260506013812 | 0 | 177 | 0.9 | 3.5 | 0.00 | 0.00 | 0.00 | 1008.6 | |
| 20260506013309 | 0 | 151 | 0.0 | 1.7 | 0.00 | 0.00 | 0.00 | 1008.6 | |
| 20260506012806 | 0 | 133 | 1.7 | 2.6 | 0.00 | 0.00 | 0.00 | 1008.6 | |
| 20260506012307 | 0 | 174 | 0.0 | 2.6 | 0.00 | 0.00 | 0.00 | 1008.6 | |
| 20260506011800 | 0 | 241 | 0.0 | 2.6 | 0.00 | 0.00 | 0.00 | 1008.6 | |
| 20260506011256 | 0 | 193 | 0.0 | 3.5 | 0.00 | 0.00 | 0.00 | 1008.6 | |
| 20260506010754 | 0 | 176 | 1.7 | 4.3 | 0.00 | 0.00 | 0.00 | 1008.6 | |
| 20260506010251 | 0 | 193 | 0.0 | 3.5 | 0.00 | 0.00 | 0.00 | 1008.6 | |
| 20260506005748 | 0 | 146 | 0.9 | 4.3 | 0.00 | 0.00 | 0.00 | 1008.6 | |
| 20260506005245 | 0 | 130 | 0.0 | 1.7 | 0.00 | 0.00 | 0.00 | 1008.6 | |
| 20260506004741 | 0 | 181 | 0.9 | 1.7 | 0.00 | 0.00 | 0.00 | ||
| 20260506004239 | 0 | 225 | 0.9 | 3.5 | 0.00 | 0.00 | 0.00 | ||
| 20260506003734 | 0 | 219 | 0.9 | 2.6 | 0.00 | 0.00 | 0.00 | ||
| 20260506003231 | 0 | 191 | 1.7 | 4.3 | 0.00 | 0.00 | 0.00 | ||
| 20260506002727 | 0 | 237 | 0.0 | 2.6 | 0.00 | 0.00 | 0.00 | ||
| 20260506002224 | 0 | 205 | 1.7 | 5.2 | 0.00 | 0.00 | 0.00 | ||
| 20260506001719 | 0 | 252 | 0.0 | 4.3 | 0.00 | 0.00 | 0.00 | 1008.4 | |
| 20260506001218 | 0 | 185 | 0.0 | 4.3 | 0.00 | 0.00 | 0.00 | 1008.4 | |
| 20260506000714 | 0 | 204 | 0.9 | 1.7 | 0.00 | 0.00 | 0.00 | 1008.4 | |
| 20260506000212 | 0 | 196 | 0.9 | 2.6 | 0.00 | 0.00 | 0.00 | 1008.4 | |
| 20260505235709 | 0 | 272 | 0.9 | 1.7 | 0.00 | 0.00 | 0.00 | 1008.4 | |
| 20260505235206 | 0 | 208 | 0.9 | 1.7 | 0.00 | 0.00 | 0.00 | 1008.4 | |
| 20260505234703 | 0 | 166 | 0.0 | 3.5 | 0.00 | 0.00 | 0.00 | 1008.4 | |
| 20260505234200 | 0 | 247 | 0.9 | 2.6 | 0.00 | 0.00 | 0.00 | 1008.4 | |
| 20260505233657 | 0 | 224 | 0.0 | 3.5 | 0.00 | 0.00 | 0.00 | 1008.4 | |
| 20260505233155 | 0 | 259 | 0.0 | 2.6 | 0.00 | 0.00 | 0.00 | 1008.4 | |
| 20260505232652 | 0 | 237 | 1.7 | 2.6 | 0.00 | 0.00 | 0.00 | 1008.4 | |
| 20260505232150 | 0 | 206 | 0.9 | 2.6 | 0.00 | 0.00 | 0.00 | 1008.4 | |
| 20260505231646 | 0 | 220 | 2.6 | 5.2 | 0.00 | 0.00 | 0.00 | 1008.4 | |
| 20260505231145 | 0 | 196 | 0.9 | 1.7 | 0.00 | 0.00 | 0.00 | 1008.3 | |
| 20260505230643 | 0 | 120 | 4.3 | 6.1 | 0.00 | 0.00 | 0.00 | 1008.2 | |
| 20260505230138 | 0 | 218 | 1.7 | 4.3 | 0.00 | 0.00 | 0.00 | 1008.2 | |
| 20260505225635 | 0 | 148 | 1.7 | 3.5 | 0.00 | 0.00 | 0.00 | 1008.2 | |
| 20260505225132 | 0 | 170 | 3.5 | 9.6 | 0.00 | 0.00 | 0.00 | 1008.0 | |
| 20260505224628 | 0 | 180 | 1.7 | 7.0 | 0.00 | 0.00 | 0.00 | 1008.1 | |
| 20260505224126 | 0 | 107 | 0.0 | 5.2 | 0.00 | 0.00 | 0.00 | 1008.0 | |
| 20260505223623 | 0 | 173 | 1.7 | 3.5 | 0.00 | 0.00 | 0.00 | 1008.1 | |
| 20260505223119 | 0 | 233 | 1.7 | 2.6 | 0.00 | 0.00 | 0.00 | 1008.2 | |
| 20260505222615 | 0 | 210 | 2.6 | 2.6 | 0.00 | 0.00 | 0.00 | 1008.1 | |
| 20260505222112 | 0 | 215 | 0.9 | 2.6 | 0.00 | 0.00 | 0.00 | 1008.2 | |
| 20260505221609 | 0 | 223 | 2.6 | 3.5 | 0.00 | 0.00 | 0.00 | 1008.0 | |
| 20260505221105 | 0 | 219 | 2.6 | 2.6 | 0.00 | 0.00 | 0.00 | 1008.0 | |
| 20260505220603 | 0 | 135 | 2.6 | 4.3 | 0.00 | 0.00 | 0.00 | ||
| 20260505220101 | 0 | 244 | 0.9 | 3.5 | 0.00 | 0.00 | 0.00 | ||
| 20260505215558 | 0 | 180 | 1.7 | 3.5 | 0.00 | 0.00 | 0.00 | 1008.8 | |
| 20260505215056 | 0 | 219 | 0.0 | 3.5 | 0.00 | 0.00 | 0.00 | 1008.8 | |
| 20260505214554 | 0 | 238 | 1.7 | 3.5 | 0.00 | 0.00 | 0.00 | 1008.8 | |
| 20260505214050 | 0 | 203 | 0.9 | 3.5 | 0.00 | 0.00 | 0.00 | 1008.8 | |
| 20260505213548 | 0 | 183 | 1.7 | 1.7 | 0.00 | 0.00 | 0.00 | 1008.8 | |
| 20260505213044 | 0 | 230 | 2.6 | 5.2 | 0.00 | 0.00 | 0.00 | 1008.8 | |
| 20260505212541 | 0 | 216 | 2.6 | 6.1 | 0.00 | 0.00 | 0.00 | 1008.8 | |
| 20260505212038 | 0 | 169 | 1.7 | 3.5 | 0.00 | 0.00 | 0.00 | 1008.8 | |
| 20260505211535 | 0 | 162 | 0.9 | 3.5 | 0.00 | 0.00 | 0.00 | 1008.8 | |
| 20260505211031 | 0 | 233 | 2.6 | 4.3 | 0.00 | 0.00 | 0.00 | 1008.8 | |
| 20260505210528 | 0 | 152 | 4.3 | 6.1 | 0.00 | 0.00 | 0.00 | 1008.8 | |
| 20260505210026 | 0 | 204 | 1.7 | 6.1 | 0.00 | 0.00 | 0.00 | 1008.8 | |
| 20260505205524 | 0 | 208 | 0.9 | 4.3 | 0.00 | 0.00 | 0.00 | 1008.8 | |
| 20260505205021 | 0 | 223 | 1.7 | 4.3 | 0.00 | 0.00 | 0.00 | 1008.9 | |
| 20260505204518 | 0 | 208 | 2.6 | 3.5 | 0.00 | 0.00 | 0.00 | 1009.1 | |
| 20260505204015 | 0 | 231 | 0.9 | 3.5 | 0.00 | 0.00 | 0.00 | 1008.8 | |
| 20260505203512 | 0 | 197 | 1.7 | 4.3 | 0.00 | 0.00 | 0.00 | 1009.1 | |
| 20260505203009 | 0 | 180 | 0.9 | 8.7 | 0.00 | 0.00 | 0.00 | 1009.2 | |
| 20260505202505 | 0 | 266 | 1.7 | 3.5 | 0.00 | 0.00 | 0.00 | 1009.1 | |
| 20260505202001 | 0 | 220 | 1.7 | 5.2 | 0.00 | 0.00 | 0.00 | 1009.4 | |
| 20260505201458 | 0 | 272 | 2.6 | 3.5 | 0.00 | 0.00 | 0.00 | 1009.4 | |
| 20260505200955 | 0 | 96 | 2.6 | 3.5 | 0.00 | 0.00 | 0.00 | 1009.5 | |
| 20260505200453 | 0 | 223 | 0.9 | 2.6 | 0.00 | 0.00 | 0.00 | 1009.6 | |
| 20260505195949 | 0 | 196 | 0.9 | 5.2 | 0.00 | 0.00 | 0.00 | 1009.7 | |
| 20260505195446 | 0 | 216 | 3.5 | 4.3 | 0.00 | 0.00 | 0.00 | 1009.8 | |
| 20260505194943 | 0 | 227 | 1.7 | 2.6 | 0.00 | 0.00 | 0.00 | 1009.6 | |
| 20260505194441 | 0 | 150 | 3.5 | 7.8 | 0.00 | 0.00 | 0.00 | 1009.7 | |
| 20260505193941 | 0 | 191 | 1.7 | 4.3 | 0.00 | 0.00 | 0.00 | 1010.0 | |
| 20260505193438 | 0 | 326 | 0.0 | 2.6 | 0.00 | 0.00 | 0.00 | 1010.0 | |
| 20260505192936 | 0 | 234 | 1.7 | 5.2 | 0.00 | 0.00 | 0.00 | 1010.0 | |
| 20260505192434 | 0 | 229 | 1.7 | 7.8 | 0.00 | 0.00 | 0.00 | 1010.1 | |
| 20260505191931 | 0 | 192 | 1.7 | 6.1 | 0.00 | 0.00 | 0.00 | 1009.9 | |
| 20260505191430 | 0 | 8 | 0.9 | 8.7 | 0.00 | 0.00 | 0.00 | 1010.2 | |
| 20260505190926 | 0 | 227 | 1.7 | 3.5 | 0.00 | 0.00 | 0.00 | 1010.2 | |
| 20260505190422 | 0 | 283 | 1.7 | 3.5 | 0.00 | 0.00 | 0.00 | 1010.2 | |
| 20260505185917 | 0 | 229 | 1.7 | 5.2 | 0.00 | 0.00 | 0.00 | 1010.5 | |
| 20260505185415 | 0 | 142 | 1.7 | 4.3 | 0.00 | 0.00 | 0.00 | 1010.3 | |
| 20260505184911 | 0 | 248 | 2.6 | 4.3 | 0.00 | 0.00 | 0.00 | 1010.5 | |
| 20260505184408 | 0 | 202 | 0.9 | 3.5 | 0.00 | 0.00 | 0.00 | 1010.6 | |
| 20260505183905 | 0 | 269 | 0.9 | 3.5 | 0.00 | 0.00 | 0.00 | 1010.8 | |
| 20260505183402 | 0 | 279 | 2.6 | 3.5 | 0.00 | 0.00 | 0.00 | 1010.8 | |
| 20260505182858 | 0 | 269 | 2.6 | 5.2 | 0.00 | 0.00 | 0.00 | 1011.0 | |
| 20260505182355 | 0 | 211 | 2.6 | 4.3 | 0.00 | 0.00 | 0.00 | 1011.0 | |
| 20260505181851 | 0 | 217 | 1.7 | 6.1 | 0.00 | 0.00 | 0.00 | 1011.1 | |
| 20260505181349 | 0 | 225 | 1.7 | 3.5 | 0.00 | 0.00 | 0.00 | 1011.1 | |
| 20260505180845 | 0 | 231 | 2.6 | 3.5 | 0.00 | 0.00 | 0.00 | 1011.0 | |
| 20260505180342 | 0 | 226 | 1.7 | 4.3 | 0.00 | 0.00 | 0.00 | 1011.2 | |
| 20260505175839 | 0 | 250 | 2.6 | 4.3 | 0.00 | 0.00 | 0.00 | 1011.3 | |
| 20260505175335 | 0 | 198 | 0.9 | 2.6 | 0.00 | 0.00 | 0.00 | 1011.3 | |
| 20260505174831 | 0 | 255 | 0.9 | 3.5 | 0.00 | 0.00 | 0.00 | 1011.6 | |
| 20260505174329 | 0 | 180 | 0.0 | 1.7 | 0.00 | 0.00 | 0.00 | 1011.5 | |
| 20260505173824 | 0 | 219 | 2.6 | 4.3 | 0.00 | 0.00 | 0.00 | 1011.4 | |
| 20260505173321 | 0 | 245 | 2.6 | 3.5 | 0.00 | 0.00 | 0.00 | 1011.4 | |
| 20260505172819 | 0 | 221 | 1.7 | 4.3 | 0.00 | 0.00 | 0.00 | 1011.5 | |
| 20260505172317 | 0 | 271 | 0.0 | 4.3 | 0.00 | 0.00 | 0.00 | 1011.5 | |
| 20260505171815 | 0 | 212 | 3.5 | 6.1 | 0.00 | 0.00 | 0.00 | 1011.4 | |
| 20260505171313 | 0 | 229 | 0.0 | 2.6 | 0.00 | 0.00 | 0.00 | 1011.5 | |
| 20260505170809 | 0 | 242 | 0.0 | 2.6 | 0.00 | 0.00 | 0.00 | 1011.4 | |
| 20260505170306 | 0 | 248 | 0.0 | 1.7 | 0.00 | 0.00 | 0.00 | 1011.7 | |
| 20260505165801 | 0 | 199 | 1.7 | 2.6 | 0.00 | 0.00 | 0.00 | 1011.5 | |
| 20260505165257 | 0 | 217 | 1.7 | 2.6 | 0.00 | 0.00 | 0.00 | 1011.5 | |
| 20260505164753 | 0 | 193 | 0.0 | 2.6 | 0.00 | 0.00 | 0.00 | 1011.5 | |
| 20260505164251 | 0 | 215 | 0.9 | 2.6 | 0.00 | 0.00 | 0.00 | 1011.6 | |
| 20260505163749 | 0 | 228 | 1.7 | 3.5 | 0.00 | 0.00 | 0.00 | 1011.8 | |
| 20260505163247 | 0 | 211 | 1.7 | 4.3 | 0.00 | 0.00 | 0.00 | 1011.7 | |
| 20260505162744 | 0 | 227 | 1.7 | 3.5 | 0.00 | 0.00 | 0.00 | 1011.6 | |
| 20260505162241 | 0 | 263 | 0.0 | 2.6 | 0.00 | 0.00 | 0.00 | 1011.6 | |
| 20260505161738 | 0 | 225 | 1.7 | 2.6 | 0.00 | 0.00 | 0.00 | 1011.8 | |
| 20260505161236 | 0 | 228 | 1.7 | 4.3 | 0.00 | 0.00 | 0.00 | 1011.8 | |
| 20260505160733 | 0 | 235 | 0.0 | 2.6 | 0.00 | 0.00 | 0.00 | 1011.5 | |
| 20260505160231 | 0 | 221 | 2.6 | 2.6 | 0.00 | 0.00 | 0.00 | 1011.6 | |
| 20260505153210 | 0 | 223 | 0.9 | 6.1 | 0.00 | 0.00 | 0.00 | 1011.7 | |
| 20260505152706 | 0 | 216 | 0.0 | 2.6 | 0.00 | 0.00 | 0.00 | 1011.7 | |
| 20260505152202 | 0 | 187 | 0.9 | 5.2 | 0.00 | 0.00 | 0.00 | 1011.8 | |
| 20260505151657 | 0 | 194 | 2.6 | 5.2 | 0.00 | 0.00 | 0.00 | 1011.6 | |
| 20260505151156 | 0 | 217 | 2.6 | 3.5 | 0.00 | 0.00 | 0.00 | 1011.9 | |
| 20260505150651 | 0 | 200 | 0.0 | 2.6 | 0.00 | 0.00 | 0.00 | 1011.6 | |
| 20260505150149 | 0 | 225 | 0.0 | 1.7 | 0.00 | 0.00 | 0.00 | 1011.5 | |
| 20260505140617 | 0 | 236 | 0.0 | 3.5 | 0.00 | 0.00 | 0.00 | 1011.2 | |
| 20260505140114 | 0 | 228 | 0.9 | 2.6 | 0.00 | 0.00 | 0.00 | 1011.1 | |
| 20260505125030 | 0 | 199 | 2.6 | 3.5 | 0.00 | 0.00 | 0.00 | 1010.6 | |
| 20260505124527 | 0 | 248 | 0.9 | 2.6 | 0.00 | 0.00 | 0.00 | 1010.6 | |
| 20260505124023 | 0 | 212 | 0.0 | 4.3 | 0.00 | 0.00 | 0.00 | 1010.5 | |
| 20260505123520 | 0 | 178 | 0.9 | 2.6 | 0.00 | 0.00 | 0.00 | 1010.4 | |
| 20260505123016 | 0 | 254 | 1.7 | 3.5 | 0.00 | 0.00 | 0.00 | 1010.3 | |
| 20260505122513 | 0 | 204 | 0.9 | 4.3 | 0.00 | 0.00 | 0.00 | 1010.1 | |
| 20260505122010 | 0 | 185 | 1.7 | 7.0 | 0.00 | 0.00 | 0.00 | 1010.1 | |
| 20260505121506 | 0 | 191 | 1.7 | 2.6 | 0.00 | 0.00 | 0.00 | 1009.9 | |
| 20260505121003 | 0 | 216 | 1.7 | 3.5 | 0.00 | 0.00 | 0.00 | 1010.1 | |
| 20260505120500 | 0 | 212 | 1.7 | 4.3 | 0.00 | 0.00 | 0.00 | 1010.0 | |
| 20260505115959 | 0 | 197 | 0.9 | 2.6 | 0.00 | 0.00 | 0.00 | 1010.0 | |
| 20260505115455 | 0 | 174 | 0.9 | 3.5 | 0.00 | 0.00 | 0.00 | 1009.9 | |
| 20260505114953 | 0 | 212 | 0.9 | 4.3 | 0.00 | 0.00 | 0.00 | 1009.6 | |
| 20260505114449 | 0 | 175 | 0.0 | 2.6 | 0.00 | 0.00 | 0.00 | 1009.8 | |
| 20260505113946 | 0 | 199 | 2.6 | 6.1 | 0.00 | 0.00 | 0.00 | 1009.8 | |
| 20260505113442 | 0 | 185 | 0.9 | 2.6 | 0.00 | 0.00 | 0.00 | 1009.9 | |
| 20260505112938 | 0 | 256 | 0.0 | 3.5 | 0.00 | 0.00 | 0.00 | 1009.8 | |
| 20260505112436 | 0 | 212 | 1.7 | 2.6 | 0.00 | 0.00 | 0.00 | 1009.7 | |
| 20260505111932 | 0 | 214 | 2.6 | 7.0 | 0.00 | 0.00 | 0.00 | 1009.6 | |
| 20260505111426 | 0 | 239 | 0.9 | 3.5 | 0.00 | 0.00 | 0.00 | 1009.6 | |
| 20260505110923 | 0 | 154 | 0.9 | 5.2 | 0.00 | 0.00 | 0.00 | 1009.8 | |
| 20260505110420 | 0 | 179 | 1.7 | 3.5 | 0.00 | 0.00 | 0.00 | 1009.7 | |
| 20260505101851 | 0 | 222 | 0.9 | 5.2 | 0.00 | 0.00 | 0.00 | 1009.9 | |
| 20260505101346 | 0 | 186 | 0.0 | 4.3 | 0.00 | 0.00 | 0.00 | 1010.0 | |
| 20260505100842 | 0 | 193 | 1.7 | 2.6 | 0.00 | 0.00 | 0.00 | 1010.1 | |
| 20260505100339 | 0 | 187 | 1.7 | 5.2 | 0.00 | 0.00 | 0.00 | 1010.3 | |
| 20260505095834 | 0 | 170 | 0.9 | 3.5 | 0.00 | 0.00 | 0.00 | 1010.4 | |
| 20260505095332 | 0 | 216 | 1.7 | 3.5 | 0.00 | 0.00 | 0.00 | 1010.2 | |
| 20260505094827 | 0 | 236 | 0.9 | 1.7 | 0.00 | 0.00 | 0.00 | 1010.2 | |
| 20260505094325 | 0 | 148 | 0.9 | 4.3 | 0.00 | 0.00 | 0.00 | 1010.2 | |
| 20260505093820 | 0 | 189 | 1.7 | 2.6 | 0.00 | 0.00 | 0.00 | 1010.3 | |
| 20260505093318 | 0 | 222 | 2.6 | 3.5 | 0.00 | 0.00 | 0.00 | 1010.3 | |
| 20260505092814 | 0 | 215 | 0.9 | 2.6 | 0.00 | 0.00 | 0.00 | 1010.2 | |
| 20260505092313 | 0 | 218 | 0.0 | 6.1 | 0.00 | 0.00 | 0.00 | 1010.3 | |
| 20260505091810 | 0 | 207 | 0.0 | 2.6 | 0.00 | 0.00 | 0.00 | 1010.3 | |
| 20260505091308 | 0 | 184 | 1.7 | 2.6 | 0.00 | 0.00 | 0.00 | 1010.4 | |
| 20260505090806 | 0 | 230 | 0.0 | 7.0 | 0.00 | 0.00 | 0.00 | 1010.5 | |
| 20260505090304 | 0 | 180 | 0.0 | 2.6 | 0.00 | 0.00 | 0.00 | 1010.5 | |
| 20260505085801 | 0 | 170 | 1.7 | 3.5 | 0.00 | 0.00 | 0.00 | 1010.2 | |
| 20260505085259 | 0 | 123 | 0.9 | 4.3 | 0.00 | 0.00 | 0.00 | 1010.4 | |
| 20260505084756 | 0 | 200 | 0.9 | 2.6 | 0.00 | 0.00 | 0.00 | 1010.6 | |
| 20260505084255 | 0 | 175 | 1.7 | 2.6 | 0.00 | 0.00 | 0.00 | 1010.5 | |
| 20260505083751 | 0 | 212 | 0.0 | 2.6 | 0.00 | 0.00 | 0.00 | 1010.5 | |
| 20260505083248 | 0 | 200 | 1.7 | 3.5 | 0.00 | 0.00 | 0.00 | 1010.5 | |
| 20260505082744 | 0 | 195 | 0.9 | 3.5 | 0.00 | 0.00 | 0.00 | 1010.5 | |
| 20260505082242 | 0 | 222 | 0.9 | 5.2 | 0.00 | 0.00 | 0.00 | 1010.7 | |
| 20260505081737 | 0 | 261 | 0.9 | 7.8 | 0.00 | 0.00 | 0.00 | 1010.8 | |
| 20260505081235 | 0 | 292 | 1.7 | 3.5 | 0.00 | 0.00 | 0.00 | 1010.8 | |
| 20260505080732 | 0 | 172 | 3.5 | 11.3 | 0.00 | 0.00 | 0.00 | 1010.8 | |
| 20260505080227 | 0 | 232 | 1.7 | 3.5 | 0.00 | 0.00 | 0.00 | 1010.9 | |
| 20260505075723 | 0 | 223 | 1.7 | 3.5 | 0.00 | 0.00 | 0.00 | 1010.8 | |
| 20260505075221 | 0 | 184 | 0.9 | 2.6 | 0.00 | 0.00 | 0.00 | 1010.9 | |
| 20260505074718 | 0 | 195 | 1.7 | 5.2 | 0.00 | 0.00 | 0.00 | 1010.9 | |
| 20260505074215 | 0 | 221 | 0.0 | 4.3 | 0.00 | 0.00 | 0.00 | 1011.0 | |
| 20260505073712 | 0 | 182 | 3.5 | 7.0 | 0.00 | 0.00 | 0.00 | 1011.0 | |
| 20260505073210 | 0 | 211 | 0.9 | 2.6 | 0.00 | 0.00 | 0.00 | 1011.0 | |
| 20260505072706 | 0 | 208 | 2.6 | 4.3 | 0.00 | 0.00 | 0.00 | 1011.0 | |
| 20260505072202 | 0 | 205 | 2.6 | 3.5 | 0.00 | 0.00 | 0.00 | 1011.1 | |
| 20260505071658 | 0 | 227 | 0.9 | 6.1 | 0.00 | 0.00 | 0.00 | 1011.2 | |
| 20260505071156 | 0 | 213 | 1.7 | 4.3 | 0.00 | 0.00 | 0.00 | 1011.3 | |
| 20260505070653 | 0 | 184 | 0.9 | 2.6 | 0.00 | 0.00 | 0.00 | 1011.4 | |
| 20260505070149 | 0 | 217 | 0.9 | 3.5 | 0.00 | 0.00 | 0.00 | 1011.5 | |
| 20260505065645 | 0 | 195 | 0.9 | 4.3 | 0.00 | 0.00 | 0.00 | 1011.6 | |
| 20260505065142 | 0 | 239 | 1.7 | 4.3 | 0.00 | 0.00 | 0.00 | 1011.6 | |
| 20260505064639 | 0 | 217 | 1.7 | 7.0 | 0.00 | 0.00 | 0.00 | 1011.6 | |
| 20260505064137 | 0 | 221 | 0.9 | 4.3 | 0.00 | 0.00 | 0.00 | 1011.6 | |
| 20260505063634 | 0 | 246 | 1.7 | 4.3 | 0.00 | 0.00 | 0.00 | 1011.5 |